Location: Curupao
(10.4996°N, 66.6442°W)
Time: 21:32:34
(UTC+00:00)

Cosmos 1777 Rocket - Pass Details

Date: 23 May 2024
Orbit: 756 x 774 km, 74.0° (Epoch: 23 June)

Event Time Altitude Azimuth Distance (km) Brightness Sun altitude
Exits shadow 07:57:27 55° 357° (N) 919 4.4 -28.9°
Drops below altitude 10° 08:01:30 10° 10° (N) 2,301 6.9 -28.0°
Sets 08:03:53 0° 11° (N) 3,230 7.8 -27.5°
